Temp
-3 -3 -4 -4 -4 -5 -5 -6 -6 -6 -7 -7 -7 -7 -6 -5 -5 -5 -5 -5 -5 -5 -4 -5 -5 -5 -5 -4 -4 -4 -3 -3 -2 -1 -0 -0 0 -0 0 -0 -1 -0 0 1 1 1 1 1 1 2 2 2
-4 -4 -5 -5 -5 -5 -6 -6 -6 -7 -7 -7 -8 -7 -7 -7 -6 -6 -6 -6 -6 -6 -5 -6 -6 -6 -5 -5 -5 -4 -4 -3 -3 -2 -1 -1 -0 -0 -0 -0 -0 -0 -0 0 0 1 1 1 1 1 2 2
-4 -5 -5 -6 -6 -6 -6 -7 -7 -7 -7 -8 -8 -8 -8 -7 -7 -7 -7 -7 -7 -7 -7 -7 -6 -6 -6 -6 -5 -5 -4 -4 -4 -3 -2 -1 -1 -1 -1 -1 -1 -1 -0 -0 -0 0 0 1 1 1 1 1
-5 -5 -6 -6 -7 -7 -7 -7 -7 -8 -8 -8 -8 -8 -8 -8 -8 -8 -7 -8 -8 -8 -8 -8 -7 -7 -7 -7 -6 -5 -4 -4 -4 -4 -3 -2 -2 -1 -1 -1 -1 -1 -1 -1 -1 -0 -0 0 1 1 1 1
-5 -6 -6 -7 -7 -7 -7 -8 -8 -8 -8 -8 -8 -9 -9 -8 -8 -8 -8 -8 -8 -9 -9 -9 -9 -8 -8 -7 -7 -5 -4 -4 -4 -4 -4 -3 -3 -2 -2 -1 -1 -1 -1 -1 -1 -1 -1 -0 0 0 0 0
-5 -5 -6 -7 -7 -8 -8 -8 -8 -8 -8 -8 -9 -9 -9 -9 -9 -8 -9 -9 -9 -9 -10 -10 -10 -9 -8 -8 -8 -6 -5 -4 -4 -4 -5 -4 -4 -3 -2 -2 -1 -1 -1 -1 -1 -1 -1 -1 -1 -0 -0 -0
-5 -5 -6 -7 -8 -8 -8 -8 -8 -8 -9 -9 -9 -9 -9 -9 -9 -9 -9 -9 -9 -9 -10 -11 -10 -10 -9 -9 -8 -7 -6 -5 -5 -5 -4 -5 -5 -4 -3 -2 -2 -2 -1 -1 -1 -1 -1 -1 -1 -1 -1 -1
-5 -6 -6 -7 -8 -8 -8 -8 -8 -8 -9 -9 -9 -9 -9 -9 -9 -9 -9 -9 -9 -9 -10 -11 -11 -11 -10 -9 -9 -8 -7 -6 -5 -5 -5 -4 -5 -5 -4 -4 -3 -2 -2 -2 -1 -1 -1 -1 -1 -1 -1 -1
-6 -6 -7 -7 -8 -8 -9 -9 -9 -9 -9 -9 -9 -9 -10 -10 -10 -9 -9 -9 -9 -9 -10 -10 -11 -11 -11 -10 -9 -9 -8 -7 -6 -6 -5 -5 -4 -5 -5 -5 -4 -3 -3 -2 -2 -1 -1 -1 -1 -1 -1 -1
-6 -6 -7 -7 -8 -8 -9 -9 -10 -10 -10 -10 -10 -10 -10 -10 -10 -10 -10 -10 -10 -10 -10 -10 -11 -11 -11 -11 -10 -9 -9 -8 -7 -6 -6 -5 -4 -4 -4 -5 -5 -4 -3 -3 -2 -2 -1 -1 -1 -1 -1 -1
-6 -7 -7 -8 -8 -8 -9 -9 -9 -10 -10 -10 -11 -11 -11 -11 -11 -11 -10 -10 -10 -10 -10 -10 -10 -11 -11 -11 -11 -10 -9 -9 -8 -7 -7 -6 -5 -4 -4 -4 -5 -5 -4 -3 -3 -3 -2 -2 -1 -1 -1 -1
-7 -7 -8 -8 -8 -9 -9 -9 -9 -9 -10 -10 -11 -11 -11 -12 -12 -11 -11 -11 -10 -10 -10 -10 -10 -11 -11 -12 -11 -11 -10 -9 -8 -8 -7 -6 -6 -5 -5 -4 -4 -4 -4 -4 -4 -3 -3 -3 -2 -2 -1 -1
-7 -7 -8 -8 -9 -9 -9 -9 -9 -10 -10 -10 -11 -11 -11 -12 -12 -12 -12 -12 -11 -11 -10 -11 -11 -11 -11 -12 -12 -11 -11 -10 -9 -8 -8 -7 -6 -6 -5 -5 -4 -4 -4 -4 -4 -4 -4 -3 -3 -2 -2 -1
-7 -7 -8 -9 -9 -9 -10 -10 -10 -10 -10 -11 -11 -11 -11 -12 -12 -12 -13 -12 -12 -11 -11 -11 -11 -11 -11 -12 -12 -12 -11 -10 -10 -9 -8 -8 -7 -6 -6 -6 -5 -5 -4 -4 -4 -4 -4 -3 -3 -3 -3 -2
-7 -8 -8 -9 -9 -10 -10 -10 -10 -11 -11 -11 -11 -12 -12 -12 -12 -13 -13 -13 -13 -12 -12 -11 -12 -11 -11 -12 -12 -12 -12 -11 -10 -10 -9 -8 -8 -7 -7 -7 -6 -6 -5 -4 -4 -4 -4 -4 -4 -4 -3 -3
-7 -8 -9 -9 -10 -10 -10 -10 -10 -11 -11 -11 -12 -12 -12 -12 -12 -12 -13 -13 -13 -13 -12 -12 -12 -12 -12 -12 -12 -12 -12 -11 -11 -10 -10 -9 -8 -8 -7 -7 -7 -7 -6 -5 -4 -4 -4 -4 -4 -4 -4 -4
-8 -8 -9 -9 -10 -10 -10 -10 -10 -11 -11 -11 -12 -12 -12 -12 -12 -12 -13 -13 -13 -13 -13 -13 -12 -12 -12 -12 -12 -13 -12 -12 -11 -11 -10 -10 -9 -9 -8 -7 -8 -7 -7 -6 -5 -5 -4 -4 -4 -4 -4 -4
-8 -8 -9 -10 -10 -10 -10 -10 -10 -11 -11 -11 -12 -12 -12 -12 -12 -12 -13 -13 -13 -13 -13 -13 -13 -13 -13 -13 -13 -13 -13 -12 -12 -11 -11 -10 -10 -9 -9 -8 -8 -8 -8 -7 -6 -6 -5 -5 -4 -4 -4 -4
-8 -9 -9 -10 -10 -10 -10 -10 -11 -11 -11 -11 -12 -12 -12 -12 -12 -12 -13 -13 -13 -13 -14 -13 -13 -13 -13 -13 -13 -13 -13 -13 -12 -11 -11 -11 -10 -10 -10 -9 -8 -8 -8 -8 -7 -7 -7 -6 -5 -4 -4 -4
-8 -9 -9 -10 -10 -10 -10 -11 -11 -11 -11 -11 -11 -12 -12 -12 -12 -13 -13 -13 -13 -13 -13 -14 -13 -13 -13 -13 -14 -13 -13 -13 -13 -12 -11 -11 -11 -10 -10 -10 -9 -9 -8 -8 -7 -7 -7 -7 -6 -5 -5 -4
-8 -9 -9 -10 -10 -10 -11 -11 -11 -11 -11 -11 -11 -12 -12 -12 -12 -13 -13 -13 -13 -13 -13 -13 -14 -14 -14 -14 -14 -14 -13 -13 -13 -13 -12 -11 -11 -11 -10 -10 -10 -9 -9 -8 -8 -7 -7 -7 -7 -6 -6 -5
-8 -9 -9 -10 -10 -11 -11 -11 -11 -11 -11 -11 -12 -12 -12 -12 -12 -13 -13 -13 -13 -13 -13 -13 -13 -14 -14 -14 -14 -14 -14 -13 -13 -13 -13 -12 -11 -11 -10 -10 -10 -9 -9 -8 -8 -8 -8 -7 -7 -7 -7 -7
-8 -9 -10 -10 -10 -11 -11 -11 -11 -11 -11 -11 -12 -12 -12 -12 -12 -13 -13 -13 -13 -13 -13 -13 -13 -13 -13 -13 -14 -14 -14 -14 -14 -14 -14 -13 -12 -11 -11 -10 -10 -9 -9 -9 -8 -8 -8 -8 -8 -8 -8 -8
-8 -9 -10 -10 -11 -11 -11 -11 -11 -11 -11 -11 -12 -12 -12 -12 -12 -13 -13 -13 -13 -13 -13 -13 -13 -13 -13 -13 -14 -14 -14 -14 -14 -14 -14 -14 -13 -12 -11 -11 -10 -10 -9 -9 -9 -8 -8 -8 -8 -9 -9 -8
-8 -9 -10 -10 -11 -11 -11 -11 -11 -11 -11 -11 -12 -12 -12 -12 -12 -13 -13 -13 -13 -13 -13 -13 -13 -13 -13 -13 -14 -14 -14 -14 -14 -14 -14 -14 -14 -13 -12 -11 -11 -10 -9 -9 -9 -9 -9 -9 -9 -9 -9 -9
-8 -9 -9 -10 -11 -11 -11 -11 -11 -11 -11 -11 -12 -12 -12 -13 -13 -13 -13 -13 -13 -13 -13 -13 -13 -13 -13 -13 -14 -14 -14 -14 -14 -14 -14 -14 -14 -14 -13 -12 -12 -11 -10 -9 -9 -9 -8 -9 -9 -9 -9 -10
-8 -9 -9 -10 -11 -11 -11 -11 -11 -11 -11 -12 -12 -12 -12 -13 -13 -13 -13 -13 -13 -13 -13 -13 -13 -13 -13 -13 -14 -14 -14 -14 -14 -13 -14 -14 -14 -14 -14 -13 -13 -12 -11 -10 -9 -9 -8 -8 -9 -9 -10 -10
-8 -9 -9 -10 -11 -11 -11 -11 -11 -11 -11 -12 -12 -12 -12 -13 -13 -13 -13 -13 -13 -13 -13 -13 -13 -13 -13 -14 -14 -14 -14 -14 -14 -14 -13 -13 -13 -13 -13 -14 -13 -13 -12 -11 -10 -10 -9 -9 -8 -9 -9 -10
-8 -9 -10 -10 -11 -11 -11 -12 -12 -12 -12 -12 -12 -12 -12 -13 -13 -13 -13 -13 -13 -14 -14 -14 -14 -14 -14 -14 -14 -14 -14 -14 -14 -14 -13 -13 -13 -13 -13 -13 -13 -13 -13 -12 -11 -10 -10 -9 -9 -8 -9 -9
-8 -9 -10 -10 -11 -11 -12 -12 -12 -12 -12 -12 -12 -12 -12 -13 -13 -13 -13 -13 -14 -14 -14 -14 -14 -14 -14 -14 -14 -14 -14 -14 -14 -14 -14 -14 -13 -13 -13 -13 -13 -13 -13 -13 -13 -12 -11 -10 -9 -9 -8 -8
-9 -9 -9 -10 -11 -11 -12 -12 -12 -12 -12 -12 -12 -12 -13 -13 -13 -13 -14 -14 -14 -14 -14 -14 -14 -14 -14 -14 -14 -14 -14 -14 -14 -14 -14 -14 -14 -14 -14 -14 -13 -13 -13 -13 -13 -13 -12 -11 -10 -9 -9 -9
Height
3086 3083 3080 3078 3076 3074 3072 3070 3068 3067 3066 3065 3066 3065 3064 3063 3061 3060 3058 3057 3056 3056 3057 3057 3058 3058 3060 3061 3062 3062 3063 3063 3064 3065 3067 3068 3070 3072 3074 3077 3079 3081 3084 3086 3088 3089 3089 3088 3088 3090 3091 3094
3082 3079 3077 3075 3073 3071 3069 3067 3065 3063 3062 3061 3061 3061 3059 3058 3056 3055 3053 3051 3051 3050 3050 3050 3052 3053 3054 3056 3057 3057 3057 3058 3059 3060 3062 3063 3064 3066 3069 3071 3074 3076 3079 3082 3083 3085 3086 3085 3083 3084 3086 3089
3078 3076 3074 3071 3069 3068 3066 3064 3062 3060 3058 3057 3056 3056 3055 3054 3052 3050 3048 3046 3045 3045 3045 3044 3045 3047 3048 3050 3052 3053 3052 3053 3054 3054 3056 3058 3059 3060 3063 3066 3069 3071 3074 3076 3078 3080 3082 3081 3079 3080 3083 3086
3075 3073 3071 3069 3067 3065 3063 3061 3059 3057 3055 3053 3052 3052 3051 3050 3048 3046 3044 3042 3040 3039 3040 3039 3039 3040 3042 3043 3045 3047 3048 3048 3049 3050 3051 3052 3053 3055 3057 3060 3062 3065 3068 3071 3073 3075 3076 3076 3075 3076 3079 3082
3071 3069 3068 3066 3064 3062 3060 3058 3056 3054 3051 3049 3049 3048 3046 3045 3044 3042 3040 3038 3035 3033 3034 3035 3034 3035 3036 3038 3039 3041 3043 3044 3045 3045 3046 3047 3048 3050 3052 3054 3057 3059 3062 3065 3068 3070 3071 3071 3071 3072 3075 3077
3068 3066 3064 3063 3062 3060 3058 3055 3053 3051 3048 3046 3045 3044 3042 3041 3040 3038 3036 3034 3031 3029 3029 3030 3031 3031 3032 3033 3034 3036 3038 3039 3040 3041 3042 3043 3044 3045 3046 3049 3051 3053 3056 3059 3062 3064 3065 3066 3067 3068 3070 3073
3065 3063 3061 3059 3058 3056 3054 3052 3050 3048 3045 3043 3041 3040 3038 3037 3035 3033 3031 3030 3028 3025 3024 3024 3026 3026 3027 3028 3030 3031 3032 3033 3034 3036 3038 3039 3040 3040 3041 3043 3046 3048 3051 3053 3055 3058 3060 3062 3063 3064 3067 3069
3062 3060 3057 3055 3054 3052 3051 3049 3047 3044 3042 3040 3038 3036 3034 3033 3031 3029 3027 3025 3023 3022 3019 3019 3020 3022 3022 3023 3025 3026 3027 3028 3028 3030 3033 3035 3036 3036 3037 3038 3040 3043 3046 3048 3050 3052 3054 3056 3058 3060 3063 3065
3059 3057 3055 3052 3050 3048 3046 3045 3043 3041 3038 3036 3034 3032 3030 3028 3026 3025 3023 3021 3019 3017 3015 3014 3014 3016 3017 3018 3020 3021 3022 3024 3024 3025 3027 3030 3031 3032 3033 3034 3035 3038 3040 3042 3044 3046 3048 3051 3053 3055 3058 3061
3057 3055 3052 3050 3047 3045 3043 3041 3039 3037 3035 3032 3030 3028 3026 3024 3022 3020 3019 3017 3014 3013 3011 3010 3009 3010 3012 3014 3015 3016 3017 3019 3019 3020 3021 3023 3025 3026 3028 3029 3031 3033 3035 3037 3038 3040 3042 3045 3047 3050 3052 3056
3054 3052 3049 3047 3044 3042 3040 3038 3035 3033 3031 3028 3026 3023 3021 3019 3017 3015 3014 3013 3010 3008 3007 3006 3005 3005 3007 3010 3011 3012 3012 3013 3014 3015 3016 3017 3019 3021 3023 3025 3026 3028 3029 3031 3032 3034 3036 3039 3042 3045 3047 3050
3051 3048 3046 3044 3041 3039 3037 3035 3032 3030 3027 3024 3022 3019 3017 3014 3012 3010 3009 3008 3006 3004 3002 3002 3001 3001 3002 3004 3006 3007 3007 3008 3008 3010 3011 3012 3014 3015 3017 3019 3021 3023 3024 3026 3027 3028 3030 3033 3036 3039 3042 3045
3048 3046 3043 3040 3038 3036 3033 3031 3028 3025 3022 3020 3017 3015 3013 3010 3007 3005 3004 3003 3001 2999 2998 2998 2997 2997 2997 2998 3000 3002 3002 3003 3004 3005 3006 3007 3009 3010 3011 3013 3014 3017 3019 3021 3022 3023 3025 3027 3030 3033 3036 3039
3044 3041 3039 3036 3034 3031 3028 3026 3023 3020 3017 3015 3012 3010 3009 3006 3004 3001 2999 2998 2997 2995 2994 2993 2992 2991 2992 2992 2994 2997 2998 2998 2999 3000 3001 3002 3004 3005 3005 3006 3008 3011 3014 3016 3017 3019 3020 3022 3024 3028 3031 3033
3039 3036 3034 3031 3029 3026 3024 3021 3018 3015 3012 3010 3008 3006 3004 3002 3000 2997 2995 2993 2992 2991 2990 2988 2987 2986 2986 2987 2988 2991 2993 2994 2995 2995 2996 2997 2998 3000 3000 3001 3002 3005 3008 3011 3012 3014 3015 3017 3019 3023 3026 3028
3035 3032 3029 3027 3025 3022 3020 3017 3013 3011 3008 3006 3004 3001 3000 2998 2996 2993 2991 2990 2988 2987 2985 2983 2982 2981 2981 2981 2982 2984 2987 2989 2990 2991 2991 2992 2993 2995 2996 2996 2997 2999 3002 3005 3007 3008 3010 3012 3015 3018 3021 3023
3032 3029 3026 3024 3021 3019 3016 3013 3010 3007 3004 3002 3000 2998 2996 2994 2991 2989 2988 2986 2984 2983 2981 2979 2977 2977 2976 2976 2977 2978 2980 2983 2985 2986 2987 2987 2988 2990 2991 2992 2993 2994 2997 2999 3001 3003 3005 3007 3010 3012 3016 3019
3029 3026 3023 3021 3019 3016 3013 3010 3007 3003 3000 2998 2996 2994 2992 2990 2987 2985 2984 2982 2980 2979 2977 2976 2974 2972 2972 2972 2972 2972 2974 2977 2980 2981 2982 2983 2984 2985 2987 2988 2988 2990 2992 2994 2996 2998 2999 3002 3004 3007 3010 3013
3026 3023 3021 3019 3016 3013 3010 3007 3004 3000 2997 2995 2992 2990 2988 2986 2984 2981 2980 2978 2976 2975 2973 2972 2970 2969 2968 2968 2968 2968 2968 2971 2974 2977 2978 2979 2980 2981 2982 2983 2984 2985 2987 2990 2991 2992 2994 2996 2998 3001 3004 3007
3023 3020 3018 3015 3013 3010 3007 3004 3001 2997 2994 2992 2989 2987 2985 2983 2980 2978 2976 2974 2972 2971 2969 2967 2966 2965 2964 2964 2965 2964 2964 2965 2968 2971 2974 2975 2975 2977 2978 2979 2981 2981 2982 2985 2986 2987 2988 2990 2993 2995 2998 3001
3019 3017 3014 3012 3010 3007 3005 3001 2998 2994 2991 2988 2986 2984 2982 2980 2977 2975 2973 2971 2969 2967 2965 2963 2962 2961 2960 2960 2961 2961 2961 2960 2961 2965 2968 2970 2971 2972 2974 2975 2976 2977 2978 2979 2982 2983 2984 2985 2987 2990 2992 2995
3015 3013 3011 3008 3006 3004 3001 2998 2995 2991 2988 2985 2983 2981 2979 2976 2974 2972 2970 2968 2965 2963 2961 2959 2958 2957 2957 2957 2957 2957 2958 2957 2957 2958 2961 2965 2967 2968 2970 2971 2972 2973 2974 2975 2976 2979 2980 2981 2982 2985 2988 2990
3012 3009 3007 3005 3003 3000 2998 2995 2993 2989 2985 2982 2979 2977 2975 2973 2971 2969 2967 2965 2962 2960 2958 2956 2954 2953 2953 2953 2953 2953 2953 2954 2954 2953 2954 2958 2961 2964 2966 2967 2968 2968 2970 2971 2972 2974 2976 2978 2979 2980 2983 2986
3008 3005 3003 3001 2999 2997 2995 2993 2990 2987 2983 2980 2977 2974 2972 2970 2968 2966 2964 2962 2959 2957 2955 2952 2951 2950 2949 2949 2949 2949 2949 2949 2949 2949 2949 2950 2954 2958 2960 2962 2964 2964 2965 2967 2968 2969 2972 2974 2975 2977 2978 2980
3004 3002 2999 2997 2996 2994 2992 2990 2988 2985 2982 2978 2974 2971 2969 2967 2965 2963 2961 2959 2957 2954 2952 2950 2947 2946 2946 2945 2945 2945 2945 2946 2946 2946 2946 2946 2947 2950 2954 2957 2959 2960 2960 2962 2963 2965 2967 2969 2971 2972 2974 2976
3001 2998 2995 2993 2992 2990 2988 2987 2984 2982 2979 2976 2972 2969 2966 2964 2962 2960 2958 2956 2954 2952 2950 2947 2945 2943 2942 2942 2942 2943 2943 2943 2943 2943 2943 2943 2943 2944 2947 2950 2952 2954 2956 2956 2957 2959 2962 2964 2965 2967 2969 2971
2997 2995 2992 2989 2987 2985 2984 2982 2980 2978 2976 2973 2970 2967 2964 2961 2959 2958 2956 2953 2951 2949 2947 2945 2943 2941 2939 2939 2940 2940 2941 2941 2940 2940 2939 2940 2940 2940 2941 2943 2945 2947 2949 2951 2952 2954 2955 2957 2959 2962 2964 2965
2994 2991 2988 2986 2983 2981 2979 2978 2976 2974 2972 2970 2967 2964 2961 2959 2957 2955 2953 2951 2949 2947 2945 2943 2941 2939 2938 2937 2937 2938 2939 2939 2938 2938 2937 2936 2936 2936 2937 2937 2939 2941 2943 2945 2947 2948 2949 2950 2953 2956 2958 2961
2991 2988 2985 2982 2980 2977 2975 2974 2971 2970 2968 2966 2964 2961 2958 2956 2955 2953 2951 2949 2947 2945 2944 2942 2940 2938 2937 2936 2936 2936 2936 2936 2936 2935 2934 2933 2933 2933 2933 2933 2934 2935 2937 2939 2941 2943 2944 2946 2946 2948 2951 2957
2987 2984 2981 2978 2976 2973 2971 2970 2968 2965 2964 2962 2960 2958 2955 2953 2952 2950 2948 2947 2945 2943 2942 2940 2938 2937 2936 2935 2934 2934 2934 2933 2933 2933 2932 2931 2930 2929 2929 2929 2930 2931 2932 2933 2936 2937 2939 2940 2941 2943 2946 2949
2983 2980 2977 2974 2972 2970 2967 2966 2964 2962 2960 2959 2957 2955 2953 2951 2949 2948 2946 2944 2943 2941 2940 2938 2937 2935 2934 2933 2933 2932 2931 2931 2930 2930 2929 2928 2928 2927 2926 2925 2926 2926 2927 2929 2930 2931 2933 2935 2937 2938 2940 2941
Wind_Speed
38 38 37 36 36 36 37 38 39 40 40 40 39 43 51 59 64 65 66 67 67 68 69 67 64 62 58 53 47 43 37 30 33 41 43 44 44 41 39 38 38 41 45 46 46 44 42 43 43 44 45 43
38 37 37 36 35 35 36 37 38 39 40 40 39 40 45 53 59 63 64 64 64 65 69 68 65 62 60 57 52 47 41 34 33 36 37 40 44 45 43 40 38 39 42 44 45 45 44 40 40 45 46 43
37 37 37 36 35 35 36 36 38 39 39 40 40 40 41 47 53 59 62 63 62 61 64 66 65 62 61 59 56 51 46 40 34 35 38 37 39 45 45 43 42 40 40 43 45 45 46 43 42 45 44 41
37 37 37 36 35 35 35 36 37 38 39 40 40 40 41 43 48 54 58 61 61 59 58 60 62 61 60 59 58 55 51 48 40 34 35 36 36 40 44 45 46 44 42 42 44 45 46 46 46 46 44 41
36 37 37 35 34 34 35 36 37 37 39 40 40 41 42 43 46 50 55 58 60 58 55 54 56 58 58 56 56 57 55 53 48 40 34 33 33 36 41 45 45 46 46 46 45 45 46 46 46 47 46 43
37 37 37 36 34 34 34 35 37 38 39 40 40 41 42 43 45 48 52 56 59 59 56 51 51 53 55 54 52 54 57 57 55 48 40 36 32 32 39 44 44 43 45 48 48 46 45 45 46 47 47 45
37 38 38 38 36 35 34 35 36 38 39 40 41 42 42 43 45 47 50 54 57 59 57 52 48 49 51 51 50 50 54 58 60 55 48 43 36 31 34 42 46 44 43 46 49 48 46 46 46 46 47 46
37 37 38 38 38 37 36 36 37 38 40 41 42 43 43 44 45 46 49 53 56 59 60 55 48 46 47 48 48 48 50 54 59 59 54 49 44 37 32 37 42 44 43 44 48 49 49 48 48 47 47 47
36 36 36 37 38 39 39 38 38 39 40 42 43 43 44 45 45 46 48 52 55 57 60 59 52 46 45 45 46 46 48 50 55 58 57 55 51 45 39 34 36 40 42 44 47 49 49 49 49 48 47 45
35 35 35 35 37 38 39 40 40 41 42 43 44 45 45 46 46 47 48 50 54 57 59 60 57 50 44 43 43 45 46 48 51 54 55 56 55 52 48 41 36 36 39 43 45 48 50 49 49 49 48 46
35 34 34 34 35 37 38 39 41 42 43 44 44 45 46 47 47 47 48 49 52 56 58 59 59 55 47 42 41 42 45 47 49 51 52 54 57 56 54 50 44 39 37 39 41 43 47 49 48 50 50 48
34 34 34 34 34 36 37 38 40 42 43 43 43 44 45 46 47 47 48 48 50 54 57 59 60 58 52 45 41 40 43 46 48 50 50 51 55 58 57 56 53 48 42 38 38 37 39 43 45 48 52 52
33 33 33 34 35 36 38 39 40 41 41 42 42 41 42 43 45 46 47 48 49 51 54 57 59 59 55 49 43 40 41 45 47 49 50 50 52 56 58 58 58 55 50 44 40 37 36 38 40 42 47 52
34 33 34 35 36 38 39 41 42 42 41 41 41 40 39 40 41 43 45 47 48 49 51 53 56 58 57 53 46 41 40 43 46 48 49 50 51 54 56 58 59 57 55 51 46 41 37 37 38 38 41 45
36 35 35 36 38 39 41 42 43 43 42 41 41 40 38 38 38 39 40 43 45 46 48 51 52 54 55 55 51 44 40 41 44 47 49 50 51 53 55 56 57 57 56 55 53 49 43 40 39 38 37 38
37 36 36 37 38 39 41 42 44 44 43 41 40 39 38 37 38 38 38 38 40 42 44 48 50 51 51 52 52 48 43 41 42 45 47 49 51 52 54 56 56 56 56 56 56 55 51 46 43 41 38 36
37 36 36 36 38 39 40 41 43 44 43 41 39 38 37 38 39 39 38 37 37 38 40 43 47 48 48 48 49 49 46 43 42 44 46 48 51 52 53 55 56 56 56 56 56 57 57 53 50 47 44 41
37 36 36 36 37 38 39 41 42 43 43 41 38 37 38 39 40 39 38 37 36 36 37 39 42 45 46 44 45 47 46 45 43 43 45 46 49 52 53 54 55 55 55 56 56 57 57 57 55 54 52 50
37 36 36 36 36 38 39 40 41 42 42 40 38 37 38 40 40 38 37 36 35 35 35 37 38 41 42 41 41 43 44 44 44 44 45 45 47 50 52 53 55 55 55 55 56 57 56 57 57 58 57 56
37 36 35 35 36 37 38 39 40 41 41 39 38 38 38 39 39 37 35 35 34 33 34 35 36 37 39 39 38 39 41 42 43 44 45 46 46 48 51 52 53 55 55 55 56 57 58 57 57 59 59 58
37 35 35 35 36 37 37 39 40 40 40 39 37 37 38 39 38 36 34 34 33 32 32 33 34 35 36 36 36 36 37 39 41 42 44 46 47 47 50 51 52 54 55 56 56 56 58 58 57 58 58 57
37 35 35 35 35 36 37 38 39 39 39 39 37 37 37 38 37 35 33 32 32 31 31 32 32 33 34 35 35 35 35 36 38 40 42 45 48 48 48 50 52 52 53 55 56 56 56 57 57 57 57 56
38 36 35 34 35 36 37 37 38 38 38 38 37 37 37 37 37 35 33 32 31 30 31 31 32 32 33 34 35 35 35 35 36 38 40 42 45 48 48 49 51 52 53 53 55 56 56 55 56 56 56 55
40 37 35 34 34 35 36 37 37 37 36 36 35 36 36 36 36 34 32 31 30 30 30 31 31 32 33 34 35 35 35 34 34 36 38 40 42 45 49 49 50 52 53 53 53 55 55 54 54 53 53 54
42 38 36 34 34 34 35 36 36 35 35 34 33 33 34 35 35 34 32 30 29 29 29 29 29 30 32 34 35 35 35 34 34 34 36 38 39 41 45 48 49 51 53 54 54 54 54 54 53 52 50 51
43 40 37 35 34 34 35 35 35 35 34 32 31 31 32 33 33 33 31 30 29 28 28 27 27 27 30 33 34 35 35 34 34 35 35 36 37 38 39 43 47 49 51 53 54 55 55 53 52 52 51 50
43 41 38 36 35 35 35 36 35 34 34 32 31 30 29 31 32 31 30 29 28 27 27 26 25 24 26 29 33 34 34 34 34 35 36 36 36 37 36 37 41 45 48 52 53 54 56 56 53 51 50 50
43 41 39 37 35 35 35 36 35 34 33 32 31 29 28 28 29 29 29 28 27 26 25 25 24 22 21 23 27 31 32 33 34 36 37 38 38 38 38 37 37 39 43 48 52 54 55 57 57 55 52 50
43 41 39 37 35 35 35 35 36 35 33 32 31 28 27 27 27 27 27 27 26 25 25 24 22 21 20 20 22 25 28 30 32 34 35 37 38 38 39 39 39 38 39 42 47 52 55 56 58 59 56 52
44 42 39 37 35 34 35 34 35 36 34 32 31 28 26 26 26 26 25 25 24 24 23 23 22 20 19 19 19 21 23 25 27 29 30 32 34 35 36 37 38 38 39 40 42 46 52 55 57 58 58 56
44 43 40 38 36 34 34 34 34 35 34 33 31 28 26 25 25 25 24 23 23 22 22 21 21 20 19 19 19 20 21 22 23 25 27 28 30 31 32 33 34 35 37 39 41 43 46 51 55 57 59 59
Wind_Direction
328 326 324 323 320 317 313 309 305 301 297 292 282 271 265 263 263 267 269 269 270 267 265 264 264 264 264 262 259 254 247 237 220 215 219 221 217 214 217 219 218 218 217 216 217 218 222 228 229 230 232 232
326 324 323 321 320 317 314 311 308 304 300 295 289 279 270 266 265 267 271 272 274 272 270 269 269 268 267 264 263 260 251 243 233 222 217 215 213 214 217 220 220 219 218 216 217 218 218 225 230 230 230 231
325 322 321 320 319 317 315 312 310 307 303 298 292 286 276 270 267 267 270 274 276 277 275 273 272 271 270 266 264 263 257 249 241 231 224 217 213 214 217 222 222 221 220 218 218 218 218 222 229 230 229 230
323 320 319 318 316 315 313 311 310 307 304 300 295 290 283 275 271 269 270 273 277 279 279 278 276 273 272 270 265 263 260 256 251 240 229 223 219 218 219 221 222 221 221 221 219 218 219 222 228 231 230 229
322 319 317 315 314 312 310 309 307 306 303 300 298 293 288 281 275 272 270 272 276 280 281 280 279 277 274 272 268 264 260 259 257 251 240 232 226 221 219 219 219 219 220 223 222 220 221 223 227 230 230 227
322 319 316 313 311 309 308 306 304 303 301 300 299 295 291 286 280 275 272 271 274 278 281 281 280 279 276 274 271 266 261 259 259 257 251 246 238 226 221 221 220 218 218 221 222 222 223 226 229 230 231 230
322 318 316 313 311 309 307 305 303 301 300 299 298 295 292 288 283 278 275 272 272 275 280 281 280 279 278 275 272 269 264 260 259 259 256 252 247 237 224 222 224 224 221 219 219 220 222 227 230 230 231 231
320 317 314 313 312 310 308 306 304 301 300 298 296 295 292 289 285 281 277 274 272 272 276 280 280 279 278 276 273 269 266 262 260 259 257 254 251 246 234 223 223 226 228 224 218 216 219 224 228 228 228 228
319 315 312 312 311 311 310 308 306 303 301 299 296 294 292 289 286 283 278 276 274 272 273 276 279 278 277 276 274 270 266 263 261 259 257 255 253 251 244 231 223 223 227 228 222 218 219 222 225 226 226 227
318 314 312 311 311 310 310 309 307 305 302 299 297 295 292 289 287 284 280 277 275 273 272 274 276 277 276 275 273 269 266 263 261 260 257 255 254 252 250 243 233 226 223 224 223 220 220 222 222 222 224 226
318 315 313 312 311 310 309 308 307 305 303 299 296 294 292 290 287 285 281 278 275 274 272 272 274 275 275 273 271 268 265 262 260 259 257 254 253 253 252 250 244 238 230 222 220 218 218 221 221 220 222 223
318 316 314 313 312 310 309 309 308 306 303 300 297 293 290 288 287 285 283 280 277 275 273 272 272 274 275 272 269 267 264 262 260 259 257 254 253 253 252 252 250 246 242 232 222 218 216 216 217 217 219 221
318 316 316 315 314 314 313 313 312 310 307 304 301 297 293 290 287 285 283 281 278 276 274 273 272 272 274 273 269 265 263 261 259 258 257 254 252 253 253 253 252 251 249 243 232 224 218 215 214 213 214 217
320 319 318 318 317 318 318 318 317 315 312 308 306 304 301 297 293 289 285 282 280 278 276 276 275 273 272 272 270 265 262 261 259 257 256 255 252 252 253 253 253 253 252 249 242 234 225 219 217 214 212 212
322 322 321 320 320 320 321 321 320 318 315 311 309 308 307 305 302 298 292 286 282 280 278 277 276 275 273 272 271 266 261 258 258 257 255 255 254 252 252 254 253 252 252 251 249 243 234 226 221 218 215 213
322 322 322 320 320 320 322 322 322 319 317 314 312 310 310 309 307 303 299 293 287 282 279 277 276 276 276 273 271 268 263 258 256 257 256 254 254 253 252 253 254 253 252 251 251 249 244 236 229 224 222 221
322 322 320 319 319 319 321 322 322 321 318 316 314 311 310 310 308 305 301 298 292 286 281 278 276 275 276 276 273 270 265 260 255 255 255 254 253 253 252 252 254 254 252 251 250 251 250 246 238 233 230 231
321 320 318 317 317 318 320 322 323 321 319 317 315 312 310 310 309 307 304 301 296 290 284 280 277 275 274 276 275 272 268 262 257 254 254 254 253 253 253 253 253 254 253 252 251 251 251 250 246 242 238 238
320 318 316 315 315 316 319 321 323 322 320 318 315 312 310 310 310 308 306 303 299 293 287 281 278 275 272 273 275 274 271 266 260 256 254 253 252 253 254 253 253 254 254 252 252 253 252 251 250 248 246 245
319 316 314 313 313 315 317 319 321 322 320 318 315 312 311 311 310 308 306 304 300 294 288 281 277 275 270 269 273 274 273 270 264 258 255 254 253 251 253 254 253 254 254 252 252 253 254 253 251 250 250 250
318 315 312 311 311 313 315 318 320 321 320 318 314 313 311 311 310 308 307 305 302 296 289 282 276 273 269 265 269 272 273 272 268 262 257 255 254 252 251 253 253 253 254 253 251 252 254 254 253 252 251 251
318 315 311 309 309 311 313 316 318 320 320 318 315 313 312 311 311 309 308 306 304 298 291 283 276 271 267 262 263 268 270 271 270 266 260 255 255 254 252 251 253 253 253 253 252 251 253 255 255 254 253 253
317 314 310 308 307 309 311 313 316 318 319 318 315 312 311 312 311 310 308 306 304 299 293 286 277 270 264 258 257 263 266 268 268 267 264 258 255 254 253 252 252 253 253 253 253 252 252 254 256 257 256 255
317 313 309 306 304 305 307 310 312 314 316 317 315 312 311 311 311 310 309 306 304 301 297 291 281 270 263 256 253 257 262 265 266 267 266 263 258 254 253 253 252 252 253 252 252 253 253 254 255 257 258 257
318 313 308 304 301 301 303 306 308 311 314 316 315 313 311 311 311 310 309 307 305 303 301 298 289 275 264 256 251 253 259 263 266 268 269 269 266 260 255 253 252 252 252 252 252 252 253 255 255 255 257 257
319 314 309 304 300 299 300 302 305 308 311 314 315 314 313 312 311 310 309 307 306 304 303 302 297 283 268 259 252 252 257 262 266 270 271 272 271 269 263 257 254 252 252 252 252 251 251 253 254 255 255 255
320 315 309 304 300 298 298 300 303 306 309 312 313 315 315 312 310 310 309 308 307 306 304 303 302 294 279 265 256 253 257 262 266 270 272 273 274 273 270 265 259 255 253 251 252 252 251 251 252 253 255 255
322 317 311 304 300 297 296 297 300 303 306 308 311 315 316 313 310 310 310 309 308 307 305 303 302 300 291 276 264 259 260 263 267 270 272 274 274 274 273 270 266 260 256 253 251 251 251 251 252 251 251 252
322 318 313 306 300 296 295 296 298 301 304 305 308 312 315 314 311 310 311 310 309 308 306 304 302 300 296 286 276 269 267 268 270 272 274 275 275 275 274 272 269 265 260 256 252 251 251 251 251 251 251 250
323 320 315 308 301 295 293 294 296 299 302 303 305 309 312 312 312 311 311 311 311 310 308 306 304 301 297 292 286 281 278 276 276 277 277 277 277 277 277 274 271 268 264 260 256 252 251 251 250 251 252 250
323 321 317 312 304 297 293 292 293 295 298 300 302 305 307 308 309 310 310 310 311 310 309 308 306 304 301 297 293 289 286 283 282 281 280 280 280 279 279 278 274 270 266 262 259 256 252 251 251 250 250 250